Probability
0 0 0 0 0 0 0 0 0 0 0 0 0 0 0 0 0 0 0 0 0 0 0 0 0 0 0 0 0 0 1 2 2 2 2 1 0 0 0 0 0 0 0 0 0 0 0 0 0
0 0 0 0 0 0 0 0 0 0 0 0 0 0 0 0 0 0 0 0 0 0 0 0 0 0 0 0 0 0 1 2 3 2 1 0 0 0 0 0 0 0 0 0 0 0 0 0 0
0 0 0 0 0 0 0 0 0 0 0 0 0 0 0 0 0 0 0 0 0 0 0 0 0 0 0 0 0 0 1 2 2 2 1 0 0 0 0 0 0 0 0 0 0 0 0 0 0
0 0 0 0 0 0 0 0 0 0 0 0 0 0 0 0 0 0 0 0 0 0 0 0 0 0 0 0 0 0 0 1 1 1 1 0 0 0 0 0 0 0 0 0 0 0 0 0 0
0 0 0 0 0 0 0 0 0 0 0 0 0 0 0 0 0 0 0 0 0 0 0 0 0 0 0 0 0 0 0 0 0 0 0 0 0 0 0 0 0 0 0 0 0 0 0 0 0
0 0 0 0 0 0 0 0 0 0 0 0 0 0 0 0 0 0 0 0 0 0 0 0 0 0 0 0 0 0 0 0 0 0 0 0 0 0 0 0 0 0 0 0 0 0 0 0 0
0 0 0 0 0 0 0 0 0 0 0 0 0 0 0 0 0 0 0 0 0 0 0 0 0 0 0 0 0 0 0 0 0 0 0 0 0 0 0 0 0 0 0 0 0 0 0 0 0
0 0 0 0 0 0 0 0 0 0 0 0 0 0 1 2 1 0 0 0 0 0 0 0 0 0 0 0 0 0 0 0 0 0 0 0 0 0 0 0 0 0 0 0 0 0 0 0 0
0 0 0 0 0 0 0 0 0 0 0 0 0 0 2 6 5 1 0 0 0 0 0 0 0 0 0 0 0 0 0 0 0 0 0 0 0 0 0 0 0 0 0 0 0 0 0 0 0
0 0 0 0 0 0 0 0 0 0 0 0 0 0 5 11 10 3 0 0 0 0 0 0 0 0 0 0 0 0 0 0 0 0 0 0 0 0 0 0 0 0 0 0 0 0 0 0 0
0 0 0 0 0 0 0 0 0 0 0 0 0 2 11 19 15 5 1 0 0 0 0 0 0 0 0 0 0 0 0 0 0 0 0 0 0 0 0 0 0 0 0 0 0 0 0 0 0
0 0 0 0 0 0 0 0 0 0 0 0 0 4 16 22 15 6 1 0 0 0 0 0 0 1 1 1 0 0 0 0 0 0 1 1 0 0 0 0 0 0 0 0 0 0 0 0 0
0 0 0 0 0 0 0 0 0 0 0 0 0 4 11 14 10 3 1 0 1 1 1 2 2 3 4 3 1 0 0 0 0 0 1 2 1 1 1 2 2 1 1 1 0 0 0 0 0
0 0 0 0 0 0 0 0 0 0 0 0 0 1 3 5 4 4 6 7 6 6 7 8 9 11 12 8 4 1 0 1 1 1 3 5 7 9 10 11 11 11 10 7 3 0 0 0 0
0 0 0 0 0 0 0 0 0 0 0 0 0 0 0 1 3 6 13 19 21 21 24 24 23 27 27 20 12 7 5 6 8 9 11 14 18 26 34 36 35 32 25 15 7 2 1 1 0
0 0 0 0 0 0 0 0 0 0 0 0 0 0 0 1 2 5 15 30 42 47 50 47 43 47 49 42 33 26 20 18 21 27 31 34 39 51 65 66 57 45 31 17 9 5 3 2 1
0 0 0 0 0 0 0 0 0 0 0 0 0 0 0 0 1 3 16 39 61 71 73 70 67 69 72 69 63 55 45 40 43 49 55 59 61 68 73 69 55 39 23 12 7 5 3 2 1
0 0 0 0 0 0 0 0 0 0 0 0 0 0 0 1 1 4 19 43 69 82 85 86 86 87 89 89 85 77 69 63 59 57 60 61 59 57 53 46 35 23 13 7 4 2 1 1 0
0 0 0 0 0 0 0 0 0 0 0 0 1 2 3 5 6 10 23 44 66 83 90 93 95 96 97 95 90 82 73 61 48 40 37 36 33 29 26 21 16 10 6 3 1 1 0 0 0
0 0 0 0 0 0 0 0 0 0 0 2 6 10 15 19 19 20 28 43 62 79 90 96 98 99 97 92 84 73 57 38 21 14 12 11 10 9 8 6 4 3 1 1 0 0 0 0 0
0 0 0 0 0 0 0 0 0 0 2 8 18 29 38 41 38 32 31 39 54 71 86 94 98 98 93 86 75 61 42 21 8 3 2 2 2 2 1 1 0 0 0 0 0 0 0 0 0
0 0 0 0 0 0 0 0 0 0 4 17 36 52 62 64 58 47 41 45 54 67 82 92 97 95 89 81 70 55 37 19 7 2 0 0 0 0 0 0 0 0 0 0 0 0 0 0 0
0 0 0 0 0 0 0 0 0 2 10 29 53 70 75 74 68 62 63 67 71 79 87 93 94 89 80 71 62 48 32 16 6 1 0 0 0 0 0 0 0 0 0 0 0 0 0 0 0
0 0 0 0 0 0 0 0 3 10 24 43 65 77 76 71 68 72 80 84 86 89 92 90 83 72 60 51 44 34 21 9 2 0 0 0 0 0 0 0 0 0 0 0 0 0 0 0 0
0 0 0 0 0 0 0 1 9 22 34 47 62 68 62 56 57 65 74 78 78 77 76 70 59 46 35 30 25 18 10 3 0 0 0 0 0 0 0 0 0 0 0 0 0 0 0 0 0
0 0 0 0 0 0 0 3 13 22 26 34 43 43 37 33 35 41 47 51 52 50 46 40 31 22 16 13 9 6 3 1 0 0 0 0 0 0 0 0 0 0 0 0 0 0 0 0 0
0 0 0 0 0 0 0 4 10 12 14 22 26 21 15 12 13 15 19 22 22 22 20 18 13 8 5 3 2 1 1 0 0 0 0 0 0 0 0 0 0 0 0 0 0 0 0 0 0
0 0 0 0 0 0 0 2 5 10 16 20 18 12 6 3 2 3 4 4 5 5 5 5 4 2 0 0 0 0 0 0 0 0 0 0 0 0 0 0 0 0 0 0 0 0 0 0 0
0 0 0 0 0 0 0 1 7 17 24 20 13 7 2 0 0 0 0 0 0 0 0 0 0 0 0 0 0 0 0 0 0 0 0 0 0 0 0 0 0 0 0 0 0 0 0 0 0
0 0 0 0 0 0 1 3 11 23 28 18 7 2 1 0 0 0 0 0 0 0 0 0 0 0 0 0 0 0 0 0 0 0 0 0 0 0 0 0 0 0 0 0 0 0 0 0 0
Wind_Speed
9 8 6 6 9 8 7 1 3 3 1 2 1 1 4 5 5 5 7 13 15 16 17 18 13 12 12 11 11 13 14 15 15 14 14 12 12 11 11 10 10 10 11 11 10 10 10 9 8
7 6 6 7 9 9 5 1 4 4 4 2 3 1 1 2 5 6 9 14 16 16 16 17 16 13 13 13 12 12 14 14 14 13 13 12 12 11 10 10 10 10 9 9 9 9 9 8 7
7 7 7 7 10 10 7 3 6 4 2 4 3 1 2 4 4 6 11 16 16 15 15 17 17 14 14 14 13 13 13 13 13 13 12 11 11 10 9 9 9 8 8 8 8 8 8 6 5
7 7 7 10 15 13 12 11 8 6 6 6 4 3 4 5 4 9 15 16 17 16 15 18 16 15 14 14 14 13 13 13 13 12 11 10 9 9 8 8 8 7 6 6 7 7 7 5 4
7 7 12 15 18 16 12 12 10 9 7 6 5 3 6 6 8 13 15 16 15 15 15 18 15 14 14 14 13 12 12 11 11 11 10 9 8 7 7 7 6 6 6 5 6 7 6 5 4
7 8 14 18 19 15 14 13 12 13 10 8 7 4 7 9 10 13 15 14 14 14 14 17 16 15 15 15 14 12 11 11 10 10 9 9 8 7 6 6 6 5 5 5 6 7 6 4 3
11 12 18 20 17 14 14 12 13 14 12 10 7 5 8 10 11 13 13 13 13 14 14 15 17 16 15 13 13 12 11 10 10 9 9 9 9 8 7 6 5 4 5 5 6 6 5 4 3
10 10 18 18 15 15 11 10 12 14 13 7 7 6 7 13 13 13 12 12 13 13 13 14 15 16 16 15 14 13 11 10 10 10 11 10 9 8 7 8 6 4 4 5 5 5 5 4 3
10 12 15 15 13 12 8 10 10 9 11 10 10 4 6 18 17 14 13 13 13 13 12 13 14 14 14 14 14 14 12 10 11 11 11 10 10 11 10 8 8 5 5 5 5 5 4 4 6
11 14 15 8 8 6 5 7 7 10 15 15 13 7 10 18 18 17 16 16 16 15 15 14 14 14 13 11 12 11 11 11 11 10 12 10 7 6 6 11 7 5 5 5 6 5 6 8 5
12 14 11 7 8 7 6 6 7 13 15 17 16 15 15 19 19 18 17 16 16 16 15 14 13 13 12 9 9 7 7 8 10 10 10 7 6 5 5 5 8 7 8 7 8 8 4 2 1
12 13 10 9 6 8 9 8 8 14 15 10 13 14 18 20 20 19 17 16 15 16 17 15 14 12 12 10 8 7 7 6 7 9 9 7 5 5 4 4 4 4 4 3 4 3 3 2 3
16 12 12 13 12 12 13 13 11 13 12 7 9 14 19 20 19 18 16 15 15 15 16 15 14 13 11 9 7 8 7 7 7 6 8 7 6 5 5 3 3 3 3 4 4 3 3 3 4
13 15 12 13 14 14 14 13 10 10 10 11 12 16 19 20 20 18 18 17 16 16 15 15 15 14 12 10 8 7 7 6 6 6 8 8 6 4 4 4 3 2 2 1 1 2 3 2 2
10 11 14 15 15 12 11 13 11 5 8 12 13 14 16 17 18 19 20 18 17 16 15 14 14 14 13 12 10 7 6 6 5 5 6 7 6 5 4 3 3 2 2 3 2 3 2 2 3
12 14 14 14 12 11 11 12 9 4 7 9 10 12 14 15 18 18 19 17 16 16 15 15 13 15 14 11 9 6 5 5 4 4 4 6 6 5 4 3 3 4 4 4 4 4 4 4 3
14 15 16 13 9 9 13 11 8 2 5 6 7 9 11 13 17 17 18 17 16 15 15 15 15 15 14 12 9 7 5 4 3 2 2 3 4 4 4 4 4 5 5 4 4 4 3 4 3
14 14 13 14 10 9 12 11 5 3 4 6 5 6 8 11 14 15 16 16 15 15 14 15 15 14 13 11 8 6 5 3 1 2 2 2 2 4 5 5 6 5 5 4 4 5 4 3 2
5 11 12 10 4 8 11 11 9 5 6 6 5 5 5 7 8 9 14 15 16 15 15 15 15 14 12 9 9 8 6 4 4 3 4 4 4 5 5 6 6 5 4 4 4 4 4 3 2
10 10 10 8 4 7 10 12 11 8 6 3 3 3 5 6 6 6 9 14 16 16 16 16 15 14 13 10 8 6 7 5 5 4 4 4 5 5 5 7 6 5 4 4 4 3 2 2 1
16 14 12 9 6 9 9 14 14 10 6 3 1 3 5 7 9 7 7 10 14 16 16 14 15 14 13 12 9 9 7 5 4 4 3 4 5 5 4 5 6 5 4 4 4 4 3 3 2
15 14 12 10 11 11 9 14 14 11 10 5 1 5 8 9 9 7 4 6 9 12 13 13 13 13 13 13 12 12 8 7 5 5 5 6 6 6 5 5 6 5 5 5 5 4 3 3 3
11 10 11 11 11 11 10 11 11 11 12 5 5 8 10 10 8 7 5 2 2 5 8 10 12 12 12 12 13 11 9 8 7 8 9 7 6 7 7 6 6 6 6 6 6 5 3 2 1
8 7 8 9 11 14 14 12 11 8 4 3 6 9 9 9 8 8 9 9 8 8 9 11 13 12 11 11 10 10 12 11 11 10 10 8 6 6 8 8 7 7 7 7 6 5 5 4 3
12 11 9 11 11 11 10 11 4 10 7 5 6 8 9 9 8 9 11 11 11 11 11 12 13 12 11 10 9 10 10 11 12 11 11 9 7 6 7 7 7 7 7 7 6 5 5 4 2
16 16 11 8 10 9 10 10 8 10 8 7 7 8 9 10 10 11 11 11 11 12 12 12 13 12 11 10 10 9 9 8 8 11 11 10 8 8 8 8 7 8 7 6 5 4 3 2 1
14 15 15 11 9 7 9 7 10 8 8 8 8 10 10 9 10 10 11 11 11 12 12 12 13 12 11 11 11 10 10 11 12 12 12 10 9 9 9 9 8 7 6 5 3 3 2 1 2
15 12 9 11 11 12 11 12 10 14 10 8 8 9 9 9 10 10 10 11 11 11 12 13 13 13 12 12 10 10 12 12 13 12 12 11 10 9 9 8 7 6 5 4 2 3 2 1 2
13 13 12 12 12 12 11 5 6 10 11 10 9 9 9 9 9 9 10 10 11 11 12 12 12 13 12 12 12 13 12 12 12 11 11 10 9 9 8 8 7 6 5 4 3 2 1 3 4
11 12 14 12 12 10 11 4 6 8 12 12 11 9 9 9 9 10 10 11 11 12 12 12 12 13 12 13 13 13 12 12 12 12 11 10 9 9 8 7 7 6 5 3 2 2 3 4 5
Wind_Direction
203 215 247 255 256 254 269 309 324 320 39 72 56 309 325 334 333 35 104 149 149 151 147 153 155 155 151 144 137 134 134 138 141 141 141 141 139 135 131 128 124 122 121 118 115 110 106 103 103
199 215 237 250 268 266 243 289 309 341 29 105 146 200 276 57 48 94 136 146 153 152 152 157 151 156 154 151 145 140 139 139 139 140 141 142 140 138 137 136 133 129 125 119 114 110 107 105 105
193 228 256 261 259 266 273 302 330 328 174 207 179 175 11 45 97 130 139 151 155 153 156 145 154 158 156 156 154 149 146 144 142 143 144 144 143 141 140 140 137 132 126 120 115 111 109 108 103
196 215 239 253 257 258 275 288 313 283 194 201 206 142 93 59 111 133 142 156 157 157 156 146 159 160 158 159 160 157 153 150 148 147 147 146 144 141 141 142 140 139 134 126 118 111 107 103 92
229 242 246 250 255 261 268 274 277 261 215 191 210 150 111 99 111 133 151 158 159 159 157 150 159 161 161 162 163 162 158 155 151 149 147 144 140 140 146 150 153 154 148 133 118 110 104 94 71
217 236 248 251 255 256 260 260 255 247 226 188 196 171 111 124 139 149 155 163 161 160 160 148 159 165 166 168 168 165 162 158 154 150 147 145 145 150 157 163 166 164 154 133 119 113 106 92 59
235 238 249 255 261 259 255 249 242 235 221 198 196 179 131 147 149 156 158 167 163 165 163 158 167 171 172 172 171 168 165 162 157 153 153 156 159 163 167 168 167 160 146 132 122 116 107 91 59
244 245 246 247 251 252 240 232 233 232 222 200 206 212 153 153 153 160 164 169 170 170 169 167 174 175 177 178 175 172 169 167 164 165 168 167 168 175 177 186 163 159 147 136 124 114 108 105 85
233 239 239 233 236 235 215 226 221 228 225 208 215 233 112 145 156 167 169 175 177 176 175 176 178 180 185 182 169 177 176 175 175 179 177 184 193 185 184 180 142 164 157 141 124 114 120 170 152
218 232 234 236 239 225 203 237 233 214 215 211 211 187 144 153 165 178 182 182 182 181 185 181 186 182 189 184 170 187 189 181 200 190 183 201 199 196 194 126 149 168 162 156 134 138 187 227 173
218 234 235 228 239 261 263 259 240 228 221 217 211 191 172 171 176 188 192 190 186 183 189 188 187 188 190 185 182 189 194 182 200 198 193 203 195 196 198 168 169 184 190 191 159 193 198 177 80
225 234 245 245 237 257 276 280 255 234 232 227 219 193 180 186 187 192 196 193 190 187 188 192 186 189 197 194 188 191 198 186 196 187 202 194 203 208 193 196 180 184 199 192 201 194 149 148 155
226 231 235 247 256 267 278 271 264 245 230 225 212 192 190 196 196 194 197 196 195 193 191 192 191 187 193 201 201 197 204 197 197 192 199 207 203 207 198 194 187 206 193 189 199 195 149 168 159
221 232 243 250 257 263 265 264 242 232 210 206 201 198 201 204 202 195 195 199 198 195 194 191 192 189 190 196 205 204 207 205 212 200 202 207 215 203 203 191 184 194 206 204 190 144 160 173 111
232 233 237 240 244 249 253 243 221 202 196 201 203 206 211 212 206 202 198 200 199 195 194 193 192 191 191 196 202 204 209 206 217 207 207 208 219 201 197 188 167 140 112 107 108 105 108 102 99
213 226 234 223 222 225 237 223 167 167 199 202 206 208 213 216 214 209 205 201 200 195 192 194 194 190 189 194 196 198 198 203 215 214 207 208 219 202 187 155 130 117 114 114 106 100 94 78 62
201 214 218 207 204 216 227 227 150 180 213 213 210 214 215 217 222 217 212 203 202 198 192 193 197 192 188 186 185 185 177 192 204 209 222 206 205 184 152 125 117 121 114 109 107 98 97 91 75
199 210 206 210 181 223 228 233 204 214 245 232 223 222 220 225 224 220 216 210 202 198 195 194 194 192 184 178 173 169 166 158 118 65 46 68 104 125 125 121 125 123 115 108 102 106 97 95 88
219 217 208 205 173 239 233 238 237 237 249 246 243 244 247 252 249 226 213 211 205 199 196 195 195 186 181 176 172 167 154 117 85 71 75 88 99 117 131 129 129 126 118 119 131 127 127 125 151
220 219 213 208 203 258 249 251 247 242 236 253 276 289 301 306 295 258 227 212 208 203 199 194 193 184 180 174 164 151 122 109 105 90 85 98 110 125 143 141 138 133 130 139 154 156 156 128 171
219 226 227 230 213 232 255 246 232 219 209 200 272 338 334 330 319 298 249 226 212 205 200 195 188 179 174 157 137 123 120 112 108 115 115 117 130 141 148 147 137 141 149 150 156 156 153 139 134
211 215 231 237 244 232 218 249 210 200 200 187 46 2 351 343 332 324 290 228 215 206 195 189 179 169 159 152 147 147 143 137 147 146 142 136 126 122 121 119 117 117 118 123 128 113 125 147 152
216 201 218 232 241 254 222 246 232 185 201 169 46 18 8 359 354 1 10 38 163 177 176 166 151 145 145 145 146 144 144 141 141 139 134 122 106 99 98 101 106 112 109 104 103 106 111 143 154
205 189 208 230 237 235 228 233 230 181 170 87 47 33 22 17 29 42 52 64 75 92 107 115 120 122 128 134 140 143 143 142 140 138 130 117 104 99 104 111 113 111 109 109 110 113 103 82 78
207 212 210 208 213 228 197 221 201 95 79 58 48 47 44 40 47 56 62 68 75 84 95 106 112 114 119 121 121 129 136 141 141 136 124 121 116 114 118 117 116 112 112 114 116 113 108 119 130
206 220 234 231 216 199 176 221 121 104 97 87 76 72 65 57 57 59 61 67 74 81 89 100 105 106 107 109 110 115 119 119 118 119 122 122 120 118 120 115 113 115 118 117 117 126 132 141 221
205 220 237 262 270 249 193 154 121 133 122 105 93 81 70 64 62 61 61 64 70 75 80 89 94 95 96 99 102 105 107 110 114 118 120 118 119 122 121 119 114 113 113 118 149 118 136 161 282
234 223 219 233 238 235 222 208 187 166 147 123 102 88 80 73 67 62 60 63 66 70 75 79 85 89 93 97 99 101 104 110 115 116 112 114 115 115 118 114 113 114 116 125 141 128 90 11 351
205 215 225 233 245 247 239 200 71 143 140 126 104 91 83 76 70 65 63 64 69 72 76 81 84 87 89 92 96 98 100 104 105 106 109 110 111 115 115 115 114 113 113 112 103 70 48 337 334
210 218 220 234 233 245 263 107 82 114 122 119 108 95 85 80 74 73 74 75 75 78 80 83 86 89 91 94 95 96 100 102 103 103 104 105 104 103 105 107 107 107 105 97 78 41 358 340 331